Regional Weather Roundup
Issued by NWS

Home | Current Version | Previous Version | Graphics & Text | Print | Product List | Glossary On
Versions: 1 2 3 4 5 6 7 8 9 10 11 12 13 14 15 16 17 18 19 20 21 22 23 24 25 26 27 28 29 30 31 32 33 34 35 36 37 38 39 40 41 42 43 44 45 46 47 48 49 50
000
ASUS43 KLOT 010900
RWRIL

ILLINOIS REGIONAL WEATHER ROUNDUP
NATIONAL WEATHER SERVICE CHICAGO/ROMEOVILLE IL
400 AM CDT WED OCT 01 2014

NOTE: "FAIR" INDICATES FEW OR NO CLOUDS BELOW 12,000 FEET WITH NO
SIGNIFICANT WEATHER AND/OR OBSTRUCTIONS TO VISIBILITY.

* THESE STATIONS ARE NOT UNDER NWS QUALITY CONTROL. THEY ALSO MAY NOT
  REPORT WEATHER SUCH AS PRECIPITATION OR FOG.

ILZ001-002-007-009-015-016-024-011000-
NORTHWEST ILLINOIS

CITY           SKY/WX    TMP DP  RH WIND       PRES   REMARKS
MOLINE         NOT AVBL
$$

ILZ003-004-008-010-011-017-018-011000-
NORTH CENTRAL ILLINOIS

CITY           SKY/WX    TMP DP  RH WIND       PRES   REMARKS
ROCKFORD       PTCLDY    50  47  89 E6        30.00S
FREEPORT*      PTCLDY    46  45  95 E5        29.99S
ROCHELLE*      CLEAR     46  45  97 E6        29.99S
$$

ILZ005-006-012>014-019>023-011000-
NORTHEAST ILLINOIS

CITY           SKY/WX    TMP DP  RH WIND       PRES   REMARKS
CHICAGO-OHARE  CLOUDY    54  46  74 SE6       30.00S
CHICAGO-MIDWAY PTCLDY    54  46  74 S5        30.00S
AURORA         CLEAR     50  44  80 SE8       30.00F
LANSING*       CLEAR     46  44  95 CALM      30.01S
WAUKEGAN       NOT AVBL
DUPAGE AIRPORT MOCLDY    52  45  77 E9        29.99F
WHEELING       CLOUDY    56  47  71 S5        30.02S
NORTHERLY ISL    N/A     56  47  71 E12         N/A
$$

LMZ740>746-011000-
SOUTHERN LAKE MICHIGAN

STATION/POSITION SKY/WX   TEMP    WIND        PRES    VSBY  WAVE
                          AIR SEA DIR/SP/G                  HT/PER
                          (F)     (DEG/KT/KT) (MB)    (MI)  (FT/S)
SOUTHERN BUOY              57 62  110/ 12/ 16 1016.4F         2/ 6
WAUKEGAN HARBOR            56     130/ 11/ 14   N/A
HARRISON CRIB              56     130/ 15/ 18   N/A
BURNHAM HARBOR             56     120/ 12/ 15   N/A
CALUMET HARBOR             56     110/  8/ 11 1014.9S
MICHIGAN CITY              53      80/  5/  7   N/A
MICHIGAN CITY 6N           56 64  110/  8/ 10   N/A           2/ 2
ST. JOSEPH                 56 62  100/  8/ 16   N/A           2/ 2
$$

ILZ025>027-034>036-040-047-049-050-058-095>099-011000-
WEST-CENTRAL ILLINOIS

CITY           SKY/WX    TMP DP  RH WIND       PRES   REMARKS
QUINCY         CLEAR     57  53  86 SE12      29.88S
$$

ILZ028>032-037-038-041>044-048-051>054-059>061-011000-
CENTRAL ILLINOIS

CITY           SKY/WX    TMP DP  RH WIND       PRES   REMARKS
DECATUR        CLEAR     50  47  89 E6        29.96S
PEORIA         PTCLDY    54  46  74 E8        29.95S
SPRINGFIELD    CLEAR     53  49  86 E7        29.94S
TAYLORVILLE    NOT AVBL
$$

ILZ033-039-045-046-055>057-062-063-011000-
EAST-CENTRAL ILLINOIS

CITY           SKY/WX    TMP DP  RH WIND       PRES   REMARKS
MATTOON        PTCLDY    51  48  89 CALM      29.95S
$$

ILZ079-100>102-011000-
SOUTHWEST ILLINOIS

CITY           SKY/WX    TMP DP  RH WIND       PRES   REMARKS
BELLEVILLE     CLEAR     59  59 100 CALM      29.90S FOG
CAHOKIA*       CLEAR     63  59  87 SE6       29.90S
SPARTA*        CLEAR     63  59  88 SE8       29.91S FOG
$$

ILZ064>066-069>071-074>076-080>082-084>086-088>090-092>094-011000-
SOUTH-CENTRAL ILLINOIS

CITY           SKY/WX    TMP DP  RH WIND       PRES   REMARKS
CARBONDALE     CLEAR     55  54  96 CALM      29.91R FOG
$$

ILZ067-068-072-073-078-083-087-091-011000-
SOUTHEAST ILLINOIS

CITY           SKY/WX    TMP DP  RH WIND       PRES   REMARKS
LAWRENCEVILLE  CLEAR     56  53  90 NE5       29.95S
ROBINSON*      CLEAR     55  53  94 NE3       29.96S
$$

ABBREVIATIONS USED IN REMARKS
   TC - TEMPERATURE IN CELSIUS
  WCI - WIND CHILL INDEX
   HX - HEAT INDEX
  VSB - VISIBILITY
$$



USA.gov is the U.S. government's official web portal to all federal, state and local government web resources and services.